Weather History for Trinity Center, CA

Change the Weather History Date:

Tuesday, November 13, 2012

  Actual Average (KMHS) Record (KMHS)
Temperature  
Mean Temperature 44 °F 41 °F  
Max Temperature 48 °F 52 °F 71 °F (1914)
Min Temperature 41 °F 30 °F 6 °F (1985)
Degree Days  
Heating Degree Days 20 24  
Month to date heating degree days 285  
Since 1 July heating degree days 949  
Cooling Degree Days 0 0  
Month to date cooling degree days 0  
Year to date cooling degree days 288  
Moisture  
Dew Point 43 °F    
Average Humidity 95    
Maximum Humidity 100    
Minimum Humidity 87    
Precipitation  
Precipitation 0.05 in 0.16 in 2.50 in (1953)
Month to date precipitation 2.00  
Year to date precipitation 32.28  
Sea Level Pressure  
Sea Level Pressure 30.27 in    
Wind  
Wind Speed 2 mph ()    
Max Wind Speed 5 mph    
Max Gust Speed -    
Visibility 7.3 miles    
Events      
T = Trace of Precipitation, MM = Missing Value Source: Averaged Metar Reports

Daily Weather History Graph

Daily Weather History Graph

Search for Another Location

Airport:

Trip Planner

Search our weather history database for the weather conditions in past years. The results will help you decide how hot, cold, wet, or windy it might be!

Date:

Astronomy

Nov. 13, 2012 Rise Set
Actual Time 6:56 AM PST 4:53 PM PST
Civil Twilight 6:27 AM PST 5:22 PM PST
Nautical Twilight 5:53 AM PST 5:55 PM PST
Astronomical Twilight 5:21 AM PST 6:28 PM PST
Moon 6:41 AM PST (11/13) 4:50 PM PST (11/13)
Length of Visible Light 10h 55m
Length of Day
9h 56m
Waning Crescent, 0% of the Moon is Illuminated
Nov 13
Waning Crescent
Nov 13
New
Nov 20
First Quarter
Nov 28
Full
Dec 6
Last Quarter

Hourly Weather History & Observations

Time (PST) Temp. Windchill Dew Point Humidity Pressure Visibility Wind Dir Wind Speed Gust Speed Precip Events Conditions
12:10 AM 41.0 °F 39.0 °F 39.2 °F 93% 30.35 in 10.0 mi West 3.5 mph - N/A   Mostly Cloudy
12:30 AM 41.0 °F 38.0 °F 39.2 °F 93% 30.34 in 10.0 mi West 4.6 mph - N/A   Mostly Cloudy
12:50 AM 41.0 °F 39.0 °F 39.2 °F 93% 30.34 in 10.0 mi West 3.5 mph - N/A   Overcast
1:10 AM 41.0 °F 38.0 °F 39.2 °F 93% 30.33 in 10.0 mi West 4.6 mph - N/A   Overcast
1:30 AM 41.0 °F 39.0 °F 39.2 °F 93% 30.32 in 10.0 mi West 3.5 mph - N/A   Overcast
1:50 AM 41.0 °F 39.0 °F 39.2 °F 93% 30.33 in 10.0 mi West 3.5 mph - N/A   Overcast
2:10 AM 41.0 °F 39.0 °F 39.2 °F 93% 30.33 in 7.0 mi West 3.5 mph - N/A   Overcast
2:30 AM 41.0 °F 39.0 °F 41.0 °F 100% 30.33 in 4.0 mi West 3.5 mph - N/A   Overcast
2:50 AM 41.0 °F 39.0 °F 41.0 °F 100% 30.32 in 9.0 mi West 3.5 mph - N/A   Overcast
3:10 AM 41.0 °F 39.0 °F 41.0 °F 100% 30.31 in 10.0 mi West 3.5 mph - N/A   Overcast
3:30 AM 41.0 °F 39.0 °F 41.0 °F 100% 30.31 in 10.0 mi West 3.5 mph - N/A   Overcast
3:50 AM 41.0 °F - 41.0 °F 100% 30.30 in 3.0 mi Calm Calm - N/A   Overcast
4:10 AM 41.0 °F 39.0 °F 41.0 °F 100% 30.30 in 5.0 mi WNW 3.5 mph - N/A   Overcast
4:30 AM 41.0 °F - 41.0 °F 100% 30.30 in 3.0 mi Calm Calm - 0.01 in   Overcast
4:50 AM 41.0 °F - 41.0 °F 100% 30.30 in 4.0 mi Calm Calm - 0.02 in   Overcast
5:10 AM 41.0 °F - 41.0 °F 100% 30.30 in 2.5 mi Calm Calm - 0.01 in   Overcast
5:30 AM 41.0 °F - 41.0 °F 100% 30.29 in 2.5 mi Calm Calm - 0.01 in   Overcast
5:50 AM 41.0 °F - 41.0 °F 100% 30.29 in 3.0 mi Calm Calm - 0.01 in   Overcast
6:10 AM 41.0 °F - 41.0 °F 100% 30.29 in 6.0 mi Calm Calm - N/A   Overcast
6:30 AM 41.0 °F - 41.0 °F 100% 30.29 in 6.0 mi Calm Calm - N/A   Overcast
6:50 AM 41.0 °F - 41.0 °F 100% 30.29 in 5.0 mi Calm Calm - N/A   Overcast
7:10 AM 42.8 °F - 41.0 °F 93% 30.28 in 5.0 mi Calm Calm - N/A   Overcast
7:30 AM 42.8 °F - 41.0 °F 93% 30.29 in 9.0 mi Calm Calm - N/A   Overcast
7:50 AM 42.8 °F - 41.0 °F 93% 30.30 in 1.2 mi Calm Calm - 0.01 in   Overcast
8:10 AM 42.8 °F - 41.0 °F 93% 30.30 in 1.8 mi Calm Calm - N/A   Overcast
8:30 AM 42.8 °F - 41.0 °F 93% 30.29 in 5.0 mi Calm Calm - 0.01 in   Overcast
8:50 AM 42.8 °F - 42.8 °F 100% 30.29 in 7.0 mi Calm Calm - 0.01 in   Overcast
9:10 AM 44.6 °F - 42.8 °F 93% 30.29 in 10.0 mi Calm Calm - N/A   Overcast
9:30 AM 44.6 °F 43.1 °F 42.8 °F 93% 30.29 in 10.0 mi SW 3.5 mph - N/A   Overcast
9:50 AM 44.6 °F - 42.8 °F 93% 30.29 in 5.0 mi Calm Calm - N/A   Overcast
10:10 AM 44.6 °F - 44.6 °F 100% 30.29 in 1.2 mi Calm Calm - N/A   Overcast
10:30 AM 44.6 °F - 44.6 °F 100% 30.30 in 5.0 mi Calm Calm - N/A   Mostly Cloudy
10:50 AM 46.4 °F - 44.6 °F 93% 30.29 in 10.0 mi Calm Calm - N/A   Mostly Cloudy
11:10 AM 46.4 °F - 44.6 °F 93% 30.28 in 10.0 mi Calm Calm - N/A   Overcast
11:30 AM 46.4 °F - 44.6 °F 93% 30.27 in 10.0 mi Calm Calm - N/A   Overcast
11:50 AM 48.2 °F - 44.6 °F 87% 30.26 in 10.0 mi Calm Calm - N/A   Overcast
12:10 PM 48.2 °F - 44.6 °F 87% 30.26 in 10.0 mi Calm Calm - N/A   Overcast
12:30 PM 48.2 °F - 44.6 °F 87% 30.25 in 10.0 mi Calm Calm - N/A   Overcast
12:50 PM 48.2 °F - 44.6 °F 87% 30.25 in 10.0 mi ENE 3.5 mph - N/A   Overcast
1:10 PM 48.2 °F - 44.6 °F 87% 30.25 in 10.0 mi Calm Calm - N/A   Overcast
1:30 PM 48.2 °F - 44.6 °F 87% 30.24 in 10.0 mi Calm Calm - N/A   Overcast
1:50 PM 48.2 °F - 44.6 °F 87% 30.23 in 10.0 mi Calm Calm - N/A   Overcast
2:10 PM 48.2 °F - 46.4 °F 93% 30.22 in 10.0 mi Calm Calm - N/A   Overcast
2:30 PM 48.2 °F - 46.4 °F 93% 30.22 in 10.0 mi Calm Calm - N/A   Overcast
2:50 PM 48.2 °F - 46.4 °F 93% 30.22 in 10.0 mi Calm Calm - N/A   Overcast
3:10 PM 48.2 °F - 46.4 °F 93% 30.22 in 10.0 mi Calm Calm - N/A   Overcast
3:30 PM 48.2 °F - 46.4 °F 93% 30.22 in 10.0 mi Calm Calm - N/A   Overcast
3:50 PM 48.2 °F - 46.4 °F 93% 30.22 in 10.0 mi Calm Calm - N/A   Overcast
4:10 PM 48.2 °F - 46.4 °F 93% 30.22 in 9.0 mi Calm Calm - N/A   Overcast
4:30 PM 48.2 °F - 46.4 °F 93% 30.22 in 7.0 mi Calm Calm - N/A   Mostly Cloudy
4:50 PM 46.4 °F - 46.4 °F 100% 30.22 in 5.0 mi Calm Calm - N/A   Overcast
5:10 PM 46.4 °F 45.2 °F 46.4 °F 100% 30.22 in 7.0 mi West 3.5 mph - N/A   Overcast
5:30 PM 46.4 °F 45.2 °F 46.4 °F 100% 30.22 in 8.0 mi West 3.5 mph - N/A   Overcast
5:50 PM 46.4 °F 45.2 °F 46.4 °F 100% 30.22 in 9.0 mi West 3.5 mph - N/A   Overcast
6:10 PM 46.4 °F 45.2 °F 44.6 °F 93% 30.22 in 7.0 mi West 3.5 mph - N/A   Mostly Cloudy
6:30 PM 44.6 °F 42.2 °F 44.6 °F 100% 30.22 in 4.0 mi West 4.6 mph - N/A   Overcast
6:50 PM 46.4 °F - 44.6 °F 93% 30.22 in 8.0 mi Calm Calm - N/A   Overcast
7:10 PM 46.4 °F - 44.6 °F 93% 30.22 in 6.0 mi Calm Calm - N/A   Overcast
7:30 PM 46.4 °F - 44.6 °F 93% 30.22 in 7.0 mi Calm Calm - N/A   Overcast
7:50 PM 44.6 °F 43.1 °F 44.6 °F 100% 30.22 in 7.0 mi West 3.5 mph - N/A   Overcast
8:10 PM 44.6 °F 43.1 °F 44.6 °F 100% 30.22 in 7.0 mi West 3.5 mph - N/A   Overcast
8:30 PM 44.6 °F - 44.6 °F 100% 30.22 in 8.0 mi Calm Calm - N/A   Overcast
8:50 PM 44.6 °F 43.1 °F 42.8 °F 93% 30.23 in 4.0 mi West 3.5 mph - N/A   Overcast
9:10 PM 44.6 °F 43.1 °F 44.6 °F 100% 30.23 in 5.0 mi WNW 3.5 mph - N/A   Overcast
9:30 PM 44.6 °F 43.1 °F 44.6 °F 100% 30.23 in 5.0 mi West 3.5 mph - N/A   Overcast
9:50 PM 44.6 °F 43.1 °F 42.8 °F 93% 30.23 in 5.0 mi West 3.5 mph - N/A   Overcast
10:10 PM 44.6 °F 42.2 °F 42.8 °F 93% 30.23 in 9.0 mi West 4.6 mph - N/A   Overcast
10:30 PM 44.6 °F 43.1 °F 42.8 °F 93% 30.24 in 9.0 mi WNW 3.5 mph - N/A   Mostly Cloudy
10:50 PM 42.8 °F 41.1 °F 41.0 °F 93% 30.24 in 8.0 mi West 3.5 mph - N/A   Mostly Cloudy
11:10 PM 42.8 °F 41.1 °F 42.8 °F 100% 30.24 in 8.0 mi West 3.5 mph - N/A   Overcast
11:30 PM 42.8 °F 40.1 °F 41.0 °F 93% 30.24 in 8.0 mi West 4.6 mph - N/A   Overcast
11:50 PM 42.8 °F 40.1 °F 41.0 °F 93% 30.25 in 8.0 mi West 4.6 mph - N/A   Overcast